Regional Weather Roundup
Issued by NWS

Home | Current Version | Previous Version | Graphics & Text | Print | Product List | Glossary On
Versions: 1 2 3 4 5 6 7 8 9 10 11 12 13 14 15 16 17 18 19 20 21 22 23 24 25 26 27 28 29 30 31 32 33 34 35 36 37 38 39 40 41 42 43 44 45 46 47 48 49 50
000
ASUS45 KBOI 300110
RWRID
WEATHER ROUNDUP FOR IDAHO
NATIONAL WEATHER SERVICE BOISE ID
600 PM MST THU JAN 29 2015

NOTE: "FAIR" INDICATES FEW OR NO CLOUDS BELOW 12000 FEET
WITH NO SIGNIFICANT WEATHER AND/OR OBSTRUCTIONS TO VISIBILITY

IDZ012-014-300200-
SOUTHWEST IDAHO


CITY           SKY/WX    TMP DP  RH WIND       PRES   REMARKS
BOISE          CLOUDY    44  34  67 NW5       30.33F
CALDWELL       CLOUDY    45  32  61 CALM      30.36S
MOUNTAIN HOME  MOCLDY    39  35  84 NW6       30.32S
$$

IDZ016-017-300200-
SOUTHCENTRAL IDAHO


CITY           SKY/WX    TMP DP  RH WIND       PRES   REMARKS
BURLEY         CLOUDY    39  33  79 E8        30.28S WCI  33
JEROME         CLOUDY    39  33  79 NE8       30.29S WCI  33
TWIN FALLS     CLOUDY    40  34  79 E5        30.28F
$$

IDZ019>023-300200-
SOUTHEAST IDAHO


CITY           SKY/WX    TMP DP  RH WIND       PRES   REMARKS
IDAHO FALLS    MOCLDY    34  29  82 N7        30.33S WCI  28
POCATELLO      CLEAR     37  33  85 NE8       30.31F WCI  31
REXBURG        MOCLDY    33  28  81 E8        30.32F WCI  26
$$

IDZ006-010-011-018-031-032-300200-
CENTRAL IDAHO MOUNTAINS


CITY           SKY/WX    TMP DP  RH WIND       PRES   REMARKS
MCCALL         PTCLDY    32  27  81 CALM      30.29S
HAILEY         MOCLDY    32  28  86 CALM      30.31F
STANLEY          N/A     25  17  72 CALM      30.30S
SALMON         MOCLDY    27  21  80 CALM      30.38S
CHALLIS        CLOUDY    30  25  81 NW3       30.36S
$$

IDZ002-004-006-007-026-300200-
NORTHERN IDAHO


CITY           SKY/WX    TMP DP  RH WIND       PRES   REMARKS
LEWISTON       MOCLDY    39  35  86 CALM      30.38R
LOWELL           N/A     37  34  89 CALM      30.39R
COEUR D`ALENE  PTCLDY    36  30  80 CALM      30.36R
MULLAN PASS    PTCLDY    32  20  61 W3        30.28F
$$


USA.gov is the U.S. government's official web portal to all federal, state and local government web resources and services.